Temperature
24 24 23 24 26 26 27 31 32 32 32 32 32 31 30 29 27 25 25 24 22 22 22 21 21 20 20 20 19 19 19 19 19 19 19 19 19 18 18 18 18 18 18 18 18 18 18 18 18
24 24 25 27 27 26 29 32 32 32 32 32 31 31 30 28 28 26 25 23 22 22 22 21 21 20 20 20 19 19 19 19 19 19 19 19 18 18 18 18 18 18 18 18 18 18 18 18 18
24 25 27 29 28 29 30 32 32 33 32 32 31 30 29 28 27 26 24 23 22 21 21 21 21 20 20 20 19 19 19 19 19 19 19 18 18 18 18 18 18 18 18 18 18 18 18 18 18
24 27 28 30 30 32 33 33 33 33 32 32 31 30 28 28 27 25 24 23 21 20 21 21 21 20 20 20 19 19 19 19 19 19 18 18 18 18 18 18 18 18 18 18 18 18 18 18 18
25 28 29 29 31 33 34 34 33 33 32 31 30 28 27 26 26 25 24 23 22 20 20 21 21 20 20 20 19 19 19 19 19 18 18 18 18 18 18 18 18 18 18 18 18 18 18 18 18
28 30 29 30 32 33 34 34 33 33 32 31 30 28 26 26 25 24 24 23 22 21 20 21 20 20 20 20 19 19 19 19 19 18 18 18 18 18 18 18 18 18 18 18 18 18 18 18 18
28 30 30 31 32 33 34 34 33 33 32 31 30 28 26 25 24 24 24 23 22 21 20 21 20 20 20 19 19 19 19 19 18 18 18 18 18 18 18 18 18 18 18 18 18 18 18 18 18
29 30 30 32 33 33 34 34 33 33 32 31 31 28 26 25 24 24 24 23 22 21 20 20 20 20 20 19 19 19 19 19 18 18 18 18 18 18 18 18 18 18 18 18 18 18 18 18 18
29 30 30 32 33 34 34 34 33 33 32 31 30 28 26 25 24 24 23 23 22 21 20 19 19 19 19 19 19 19 19 19 18 18 18 18 18 18 18 18 18 18 18 18 18 18 18 18 18
30 30 31 34 35 34 34 34 33 33 32 31 29 27 25 25 24 24 23 23 22 21 20 20 19 19 19 18 19 19 18 19 18 18 18 18 17 17 17 18 18 18 18 18 18 18 18 18 18
31 31 33 34 34 34 34 34 33 33 31 30 28 26 25 25 24 24 23 23 22 21 20 20 19 19 19 18 19 18 18 18 18 18 18 18 17 17 18 18 18 18 18 18 18 18 17 18 18
32 32 33 34 34 34 34 33 33 33 32 30 29 27 26 25 24 24 23 23 22 21 21 20 19 19 19 19 19 18 18 18 18 18 18 18 18 18 18 18 18 18 18 18 18 17 18 18 18
32 33 33 33 33 33 33 33 33 33 31 30 28 27 26 25 24 24 23 22 22 21 21 20 20 19 19 19 19 18 18 18 18 18 18 18 18 18 18 18 18 18 18 18 18 18 18 18 18
33 33 33 33 33 33 33 33 33 33 31 30 28 27 26 25 25 24 23 22 22 21 20 20 19 19 19 19 19 19 18 18 18 18 18 18 18 18 18 18 18 18 17 17 17 18 18 18 18
32 32 33 33 33 33 33 32 33 32 31 30 29 28 27 26 25 24 23 22 21 21 20 20 19 19 19 19 19 19 18 18 18 18 18 18 18 18 18 18 18 17 18 18 17 17 17 18 18
32 31 31 32 33 33 33 31 32 32 31 30 29 28 27 26 24 24 23 22 21 21 20 20 19 19 19 19 18 18 18 18 18 18 18 18 18 18 18 17 17 17 18 18 17 17 18 18 18
31 30 31 32 33 33 33 31 31 31 30 29 29 28 27 26 24 23 22 21 21 20 20 19 19 19 18 18 18 18 18 18 18 18 18 18 18 18 18 17 17 17 17 17 17 17 17 17 18
30 31 31 32 33 32 32 32 32 31 31 30 29 28 27 26 24 23 22 21 21 20 19 19 19 18 18 18 18 18 18 18 18 18 18 18 18 18 17 17 17 17 17 17 17 17 17 17 17
31 31 31 31 32 32 32 32 32 31 30 30 29 28 27 26 24 23 22 21 20 20 19 19 18 18 18 18 18 18 18 18 18 18 18 18 18 18 17 17 17 17 17 17 17 17 17 17 17
31 30 31 31 32 32 32 31 32 31 30 30 29 28 27 25 24 22 21 21 20 19 19 18 18 18 18 18 18 18 18 18 18 18 17 17 17 18 18 17 17 17 17 17 17 17 17 17 17
31 31 31 31 32 32 31 30 30 30 29 29 29 28 27 26 24 22 21 20 20 19 19 18 18 18 18 18 18 18 17 17 17 17 17 17 17 18 17 17 17 17 17 17 17 17 17 17 17
30 32 32 31 31 30 30 28 28 28 27 27 28 27 27 26 24 22 21 20 19 19 18 18 18 18 18 17 17 17 17 17 17 17 17 17 17 17 17 17 17 17 17 17 17 17 17 17 17
31 32 32 31 30 29 29 28 28 28 27 26 27 27 27 26 24 22 21 20 19 19 18 18 18 18 18 17 17 17 17 17 17 17 17 17 17 17 17 17 17 17 17 17 16 16 16 17 17
32 31 31 30 29 27 27 27 27 28 27 27 28 27 27 25 24 23 21 20 19 19 18 18 18 17 17 17 17 17 17 17 17 17 17 17 17 17 17 17 17 17 17 16 16 16 16 16 17
31 30 28 27 26 26 27 27 27 29 29 29 29 28 27 25 24 22 21 20 19 19 18 18 17 17 17 17 17 17 17 17 17 17 17 17 17 17 17 17 17 17 17 16 16 16 16 16 17
30 30 27 26 25 25 25 25 27 29 30 29 29 28 27 25 24 22 21 20 19 19 18 18 17 17 17 17 17 17 17 17 17 17 17 17 17 17 17 17 17 16 16 16 16 16 16 16 16
30 30 30 28 26 24 23 24 26 28 29 29 29 28 26 25 24 23 22 20 19 19 18 18 17 17 17 17 17 17 17 17 17 17 17 17 17 17 17 17 17 16 16 16 16 16 16 16 16
31 30 29 28 26 25 24 24 24 26 27 28 28 27 26 25 24 23 22 20 20 19 18 18 17 17 17 17 17 16 17 17 17 17 17 17 17 17 17 17 17 16 16 16 16 16 16 16 16
30 30 29 28 28 27 25 24 26 25 27 27 27 27 26 25 24 23 22 20 20 19 18 18 17 17 17 17 16 16 17 17 17 17 17 17 17 17 17 17 17 16 16 16 16 16 16 16 16
30 30 29 27 27 27 26 25 25 24 26 26 26 26 26 25 25 23 22 21 20 19 18 18 17 17 17 17 17 17 17 17 17 17 17 17 17 17 17 17 16 16 16 16 16 16 15 15 15
Wind_Speed
10 13 11 8 5 5 8 1 8 9 9 10 10 11 14 14 9 10 13 20 25 24 23 22 21 20 19 18 17 17 16 16 15 15 15 15 15 15 15 15 15 15 16 16 16 16 16 16 15
11 14 11 6 6 6 3 3 9 9 9 8 9 11 14 13 13 14 16 22 25 24 22 21 22 20 19 18 18 17 16 16 15 14 14 15 14 15 15 15 15 15 16 16 16 15 15 15 14
13 17 9 7 9 7 1 4 8 7 7 6 8 10 11 10 13 14 19 23 24 22 21 23 23 21 20 18 18 17 16 16 15 14 14 14 14 14 15 15 15 15 15 15 15 15 14 14 12
8 10 7 8 11 6 1 5 5 5 6 6 8 9 10 9 10 16 21 23 23 22 22 24 23 21 20 18 18 17 16 16 15 14 14 14 14 14 15 15 15 15 15 15 15 14 14 12 11
11 8 10 11 13 4 3 4 3 4 4 5 9 12 11 10 16 19 20 22 22 22 22 23 22 21 20 19 18 17 16 15 15 14 14 14 14 15 15 15 15 15 15 14 14 13 13 11 9
9 9 11 11 9 2 3 3 2 3 4 6 9 12 8 11 14 18 19 19 21 22 22 22 22 21 20 19 18 17 16 16 15 15 15 14 14 15 15 15 14 14 14 13 13 13 11 10 7
12 12 14 14 9 4 2 2 2 3 3 4 6 10 9 13 14 17 17 18 20 22 21 19 20 19 19 19 18 17 16 15 15 15 15 15 15 15 15 15 14 14 13 13 12 11 10 8 6
12 12 17 14 9 2 4 3 2 2 3 4 4 7 11 15 17 18 16 16 19 20 20 18 18 18 17 17 17 17 16 16 15 15 15 15 15 15 15 15 13 13 12 11 11 10 9 8 5
14 13 14 13 7 1 4 2 3 2 6 4 6 12 16 19 19 18 15 15 17 18 17 18 17 16 17 17 17 17 16 15 15 14 15 15 14 14 13 15 13 12 11 10 9 8 8 7 6
12 12 16 11 6 2 1 3 3 3 4 5 10 15 18 19 19 19 18 18 18 18 18 16 17 16 15 15 16 14 14 14 13 14 14 12 11 13 14 15 13 11 10 9 8 7 7 7 6
16 17 16 12 7 6 4 4 4 4 3 5 10 16 17 18 19 18 17 16 16 16 16 16 15 12 13 11 12 10 11 12 12 13 13 10 10 13 13 11 10 10 9 8 8 7 6 4 3
17 17 16 13 9 7 8 6 6 6 3 7 11 17 19 19 19 18 16 15 16 16 15 16 15 11 10 11 9 9 9 8 8 11 12 9 5 6 8 7 9 9 7 5 5 4 3 3 3
17 17 16 14 12 10 10 9 9 6 5 8 12 16 17 18 18 16 16 15 15 14 14 14 13 11 9 9 8 9 8 9 9 11 10 10 6 5 6 5 5 7 7 5 2 3 3 2 1
15 15 16 15 14 12 12 12 11 6 7 10 12 14 16 16 17 17 16 15 15 15 15 14 14 11 9 8 6 6 7 8 10 10 11 11 8 6 5 4 3 4 6 5 4 4 3 1 1
16 17 17 16 16 14 12 13 10 6 6 8 10 13 14 15 15 16 16 15 16 15 14 13 13 12 10 10 8 7 7 9 7 9 11 10 9 9 6 4 3 4 6 5 4 3 3 2 2
15 16 17 17 17 15 13 12 6 5 7 6 8 10 12 13 15 14 15 13 13 14 13 14 15 14 12 10 8 6 7 8 7 10 10 9 10 10 6 4 3 5 6 4 2 2 2 1 1
16 17 18 16 14 11 12 9 6 8 9 9 9 8 11 13 14 13 14 14 13 13 14 14 13 15 13 11 8 6 5 6 7 10 10 9 10 10 6 4 4 5 4 3 3 3 1 2 1
13 14 14 12 8 10 12 9 8 8 9 9 9 9 10 12 12 12 13 14 12 12 13 14 13 13 13 10 8 6 6 6 6 7 9 11 11 10 6 5 6 4 2 2 2 3 1 1 2
16 16 13 8 7 10 11 10 8 8 8 8 8 9 9 10 12 11 12 13 14 13 13 14 14 13 11 10 10 9 8 7 6 6 10 11 11 10 6 5 5 3 3 3 4 3 3 2 2
16 16 14 8 8 10 10 10 8 7 9 8 9 9 9 10 11 12 12 12 13 13 14 14 15 15 13 10 9 8 8 7 7 6 9 11 11 10 8 5 6 4 4 4 3 2 2 3 3
15 15 13 10 10 11 10 11 8 5 4 5 7 9 10 11 13 13 13 12 13 13 14 14 14 14 14 12 9 8 7 6 6 7 8 8 10 10 7 7 5 5 5 5 4 4 4 2 2
15 15 14 13 12 9 9 9 6 5 5 7 6 7 9 10 12 13 13 13 12 13 13 12 13 13 13 13 12 13 11 9 9 8 8 8 9 9 9 7 6 5 4 5 6 6 4 3 3
15 13 13 12 12 12 9 8 6 7 6 7 8 9 9 10 11 12 12 12 11 12 12 12 12 13 13 13 12 12 10 9 8 9 10 9 8 8 9 8 6 5 4 5 4 4 4 3 3
14 13 12 10 10 12 11 10 6 6 6 8 10 9 9 10 10 10 10 10 10 11 12 12 12 13 14 14 13 12 11 10 10 10 10 9 7 7 8 8 6 6 5 5 4 4 4 3 2
15 12 9 8 9 10 8 8 5 7 8 7 8 10 10 10 9 9 10 11 11 11 11 11 13 13 14 14 13 12 11 11 11 11 10 9 8 7 8 8 6 5 5 5 4 4 4 4 3
15 14 10 8 6 5 6 7 4 5 7 7 8 9 9 10 10 9 9 10 11 11 11 12 12 13 13 13 12 11 11 9 9 10 9 10 7 7 8 7 7 6 6 6 5 5 5 4 3
14 13 13 11 7 5 5 6 4 1 5 6 8 10 8 9 10 9 9 10 10 11 11 12 12 12 12 12 11 10 11 10 10 10 8 8 6 8 9 8 8 6 6 6 6 4 4 4 4
15 12 8 10 8 8 6 6 4 4 5 6 7 9 9 9 10 10 9 9 9 10 10 11 12 12 11 11 11 11 11 10 9 9 9 7 7 8 10 8 8 7 7 6 6 5 5 5 5
13 15 10 8 9 9 6 3 1 3 0 3 6 7 9 10 10 10 10 10 10 9 10 11 11 11 11 11 10 10 11 11 10 9 8 7 7 9 9 8 7 7 7 7 6 5 6 7 6
13 13 11 9 8 8 7 2 2 2 3 1 6 7 8 9 10 11 11 11 11 10 9 10 11 12 12 11 10 10 10 10 10 10 9 8 8 8 8 8 8 8 8 7 7 7 7 7 7
Wind_Direction
226 240 238 253 254 261 277 46 76 70 70 63 58 65 65 60 75 104 129 130 127 129 134 136 134 134 132 130 128 127 124 121 118 115 112 109 107 104 103 102 101 100 99 98 97 96 96 97 98
247 249 246 250 253 263 278 62 82 76 80 84 78 77 78 72 87 114 126 126 127 131 138 138 137 135 134 133 132 130 127 123 120 117 115 112 111 108 105 104 103 101 101 100 99 98 98 99 101
257 261 262 250 246 259 252 86 93 90 90 90 86 75 74 85 94 118 128 130 130 135 137 137 140 137 136 135 133 131 129 126 123 120 118 115 114 111 109 106 104 103 102 101 100 100 100 101 103
251 246 243 259 270 262 98 86 94 106 107 95 99 90 78 75 103 122 134 135 135 137 136 140 141 139 138 137 135 133 132 130 127 124 120 118 116 114 111 107 106 105 103 101 101 102 102 103 105
244 258 251 264 273 266 97 92 108 115 121 99 95 95 87 87 110 128 139 138 139 136 134 141 142 140 140 140 138 137 136 134 131 128 124 122 119 116 113 110 108 106 104 103 103 104 104 105 107
247 250 258 268 275 265 111 118 132 124 126 110 109 109 104 116 125 139 143 141 138 134 135 140 143 142 142 142 141 140 139 137 134 131 128 125 122 119 116 113 111 108 107 106 105 106 109 109 110
253 268 273 276 268 245 138 131 148 138 103 117 124 119 128 134 140 142 141 139 137 135 136 143 145 145 145 145 144 142 141 139 138 135 132 130 126 123 119 117 115 114 112 111 111 111 113 117 122
254 276 283 279 261 222 135 146 177 156 129 128 127 123 140 141 146 141 144 141 137 136 141 148 149 148 149 148 147 146 145 144 142 139 139 136 133 130 128 124 120 118 117 117 118 120 123 129 140
249 260 272 280 289 158 132 177 185 161 142 135 95 107 134 144 147 146 147 145 140 141 145 149 149 153 154 152 150 151 149 149 147 146 147 146 147 142 141 124 126 124 125 126 129 134 140 146 166
236 250 262 283 316 333 185 222 203 201 167 137 105 111 135 150 154 155 159 157 151 148 152 153 153 159 159 154 150 159 158 158 162 155 161 171 154 143 130 131 134 136 137 140 146 154 168 183 176
237 249 270 293 305 305 286 262 247 231 198 149 145 145 153 158 159 162 166 162 154 154 158 155 156 164 160 145 156 164 157 161 170 163 170 166 144 136 131 142 145 152 160 163 157 179 197 186 149
241 256 268 281 292 291 284 273 258 249 179 137 153 159 162 167 166 168 168 163 157 162 163 156 158 163 153 149 160 161 156 167 167 166 170 157 151 140 143 149 158 164 165 165 169 165 132 130 149
241 253 263 268 270 268 268 266 261 248 133 137 148 159 166 170 169 170 168 167 162 165 163 156 157 158 151 144 164 167 158 165 159 164 172 159 154 146 140 140 159 160 152 156 150 107 93 72 73
261 260 262 263 258 255 256 259 253 236 170 161 160 163 171 172 172 171 169 171 169 170 167 159 159 155 148 150 169 154 156 154 156 164 168 167 152 140 136 143 162 144 141 135 137 127 137 163 90
262 265 263 257 252 246 248 252 247 236 192 178 172 175 175 173 175 176 173 174 174 172 166 159 159 156 158 160 172 163 156 156 156 156 161 165 149 142 146 149 163 135 126 124 135 134 154 164 151
259 253 256 253 241 234 235 248 241 199 192 190 192 184 175 172 179 177 170 173 172 170 163 163 168 163 166 165 176 167 161 155 151 149 157 165 149 153 155 154 153 140 140 148 136 169 167 119 135
249 245 249 252 234 228 231 239 219 192 194 196 198 184 176 172 178 172 169 174 171 167 164 165 166 166 169 168 176 174 158 151 152 153 157 166 161 164 167 144 131 155 151 155 175 151 138 147 180
243 246 251 251 223 227 235 237 205 193 203 199 193 180 173 171 173 171 171 172 168 168 166 168 168 166 167 168 172 166 165 162 158 156 156 166 168 170 169 139 142 167 152 134 107 124 129 162 218
263 280 274 261 242 235 241 244 229 191 209 213 193 176 173 172 166 165 170 170 168 169 169 171 172 169 168 169 174 171 174 171 166 161 158 169 170 166 173 149 153 169 152 152 154 149 168 209 196
251 261 267 262 245 244 249 253 244 208 216 209 188 181 177 170 159 160 166 169 173 174 174 175 175 173 174 174 173 171 168 173 172 164 159 172 170 166 178 154 167 165 155 168 171 157 186 213 184
250 254 258 257 258 253 256 255 244 225 231 240 197 179 179 174 165 165 171 175 180 180 180 185 179 176 176 170 169 168 160 174 170 162 166 176 171 173 178 165 172 168 175 170 179 179 207 220 207
248 252 261 262 262 260 254 261 221 219 208 232 209 192 177 169 164 169 173 177 183 184 183 179 177 176 174 172 176 174 173 178 175 170 169 175 175 176 177 175 169 173 173 162 195 189 205 207 224
247 256 259 263 264 268 264 261 240 205 195 214 197 200 179 165 166 170 176 177 180 183 181 179 178 180 177 179 180 179 180 181 174 171 168 173 178 182 181 175 166 172 178 170 192 170 207 210 226
242 251 258 259 260 254 256 254 242 192 195 200 189 183 162 157 159 163 167 164 170 179 178 177 178 181 179 180 182 183 182 181 176 173 168 173 176 184 181 174 168 180 181 169 178 172 203 230 248
230 237 243 247 245 255 274 260 225 184 182 178 167 161 152 150 151 158 163 167 173 178 177 177 177 180 180 181 183 186 185 184 181 177 174 177 178 182 181 175 170 181 172 168 172 181 206 208 217
225 232 232 245 250 274 305 277 243 178 154 143 148 146 145 149 150 155 162 163 171 174 173 174 174 178 179 181 183 185 184 184 185 185 180 183 183 178 169 163 171 176 172 178 173 191 199 190 202
231 232 236 245 249 261 249 267 284 154 131 142 150 142 149 150 145 153 157 157 163 166 167 169 169 172 176 178 178 182 185 188 185 182 183 181 178 171 163 165 172 175 177 179 173 204 191 172 194
235 232 240 250 252 255 243 226 231 196 185 164 155 145 144 148 145 149 148 152 155 156 158 163 166 168 167 172 178 181 184 186 181 178 183 179 173 162 160 165 171 172 175 179 183 196 182 184 207
224 237 241 257 264 266 259 233 303 319 41 137 137 141 146 152 144 145 144 146 146 152 161 164 168 167 168 173 180 177 180 183 178 179 182 175 164 159 163 169 171 174 180 183 189 207 182 193 207
236 239 241 249 265 278 278 228 216 329 333 177 143 143 144 146 145 144 143 145 148 156 162 165 169 170 171 173 176 177 176 177 178 181 182 174 166 166 169 176 178 184 187 188 194 213 200 198 202
Height
1483 1483 1482 1485 1483 1482 1476 1456 1450 1453 1455 1457 1458 1460 1465 1471 1478 1490 1490 1492 1494 1497 1501 1506 1509 1512 1515 1518 1521 1523 1525 1527 1529 1531 1532 1534 1535 1537 1538 1540 1541 1542 1543 1544 1546 1547 1548 1549 1550
1483 1483 1485 1482 1481 1486 1473 1453 1453 1454 1456 1459 1461 1464 1468 1474 1478 1484 1489 1493 1494 1497 1502 1506 1510 1513 1517 1519 1522 1525 1527 1529 1531 1533 1534 1536 1537 1539 1540 1542 1543 1544 1545 1546 1548 1549 1550 1551 1552
1483 1484 1484 1475 1475 1474 1465 1451 1452 1454 1457 1459 1463 1467 1471 1477 1481 1485 1490 1493 1496 1499 1503 1507 1511 1514 1518 1521 1523 1526 1528 1530 1532 1534 1536 1537 1539 1541 1542 1543 1545 1546 1547 1549 1550 1551 1552 1553 1555
1484 1483 1479 1471 1467 1454 1450 1449 1451 1454 1458 1460 1463 1469 1476 1480 1483 1487 1491 1494 1497 1501 1504 1508 1512 1515 1519 1522 1525 1527 1530 1532 1534 1536 1538 1539 1541 1543 1544 1545 1547 1548 1549 1550 1552 1553 1554 1556 1557
1484 1480 1474 1471 1460 1447 1444 1448 1451 1454 1458 1461 1465 1472 1479 1483 1485 1488 1492 1496 1499 1502 1504 1508 1513 1516 1520 1523 1526 1528 1531 1533 1535 1537 1539 1541 1543 1544 1546 1547 1548 1550 1551 1553 1554 1555 1556 1558 1559
1482 1473 1474 1471 1457 1446 1444 1448 1451 1454 1457 1462 1467 1473 1481 1485 1486 1489 1493 1497 1499 1502 1505 1509 1513 1517 1521 1524 1527 1529 1532 1534 1536 1539 1540 1542 1544 1546 1547 1549 1550 1552 1553 1554 1556 1557 1558 1560 1561
1479 1471 1468 1460 1456 1448 1445 1448 1451 1454 1457 1462 1465 1472 1480 1485 1487 1490 1494 1498 1500 1502 1505 1510 1514 1518 1521 1524 1528 1530 1533 1535 1538 1540 1542 1544 1546 1547 1549 1550 1552 1553 1555 1556 1558 1559 1560 1562 1563
1476 1471 1465 1455 1452 1448 1445 1448 1452 1454 1459 1461 1465 1471 1479 1484 1487 1490 1494 1498 1501 1504 1507 1511 1514 1518 1521 1525 1528 1531 1534 1536 1539 1541 1543 1545 1547 1549 1550 1552 1554 1555 1557 1558 1560 1561 1562 1564 1565
1474 1473 1469 1455 1448 1445 1445 1448 1451 1454 1458 1462 1465 1470 1475 1481 1486 1490 1495 1499 1502 1505 1508 1512 1515 1518 1522 1525 1528 1532 1534 1537 1540 1542 1544 1546 1548 1550 1552 1553 1555 1557 1559 1560 1562 1563 1564 1566 1567
1469 1470 1460 1446 1442 1442 1444 1448 1450 1454 1456 1461 1467 1473 1477 1481 1485 1488 1493 1497 1501 1505 1509 1512 1515 1519 1523 1526 1528 1532 1535 1538 1540 1543 1545 1547 1550 1552 1553 1555 1557 1558 1560 1562 1563 1565 1566 1567 1569
1462 1461 1452 1446 1444 1444 1445 1447 1449 1452 1456 1461 1467 1472 1477 1480 1484 1488 1492 1496 1500 1504 1508 1511 1515 1519 1523 1526 1529 1532 1536 1538 1541 1544 1546 1549 1551 1553 1554 1556 1558 1559 1561 1563 1565 1566 1567 1569 1570
1458 1454 1450 1447 1446 1446 1447 1447 1449 1450 1454 1459 1464 1468 1474 1478 1481 1486 1490 1494 1498 1503 1507 1510 1514 1518 1523 1525 1529 1532 1535 1538 1541 1544 1547 1549 1552 1553 1555 1556 1558 1560 1562 1564 1566 1567 1568 1569 1570
1453 1451 1448 1447 1446 1447 1447 1447 1448 1449 1453 1458 1462 1467 1471 1475 1479 1484 1488 1493 1496 1500 1505 1509 1512 1517 1521 1524 1528 1532 1535 1538 1541 1544 1547 1549 1552 1554 1555 1557 1559 1561 1563 1564 1566 1567 1568 1569 1570
1449 1447 1446 1445 1444 1444 1445 1445 1446 1447 1452 1456 1461 1465 1469 1473 1477 1482 1486 1490 1494 1498 1503 1507 1510 1515 1519 1523 1527 1531 1534 1537 1541 1543 1546 1549 1552 1553 1555 1557 1559 1561 1563 1564 1566 1567 1568 1569 1570
1448 1447 1444 1442 1441 1441 1443 1444 1443 1445 1450 1454 1458 1463 1467 1471 1475 1479 1482 1486 1491 1495 1500 1504 1508 1512 1517 1521 1526 1530 1534 1536 1540 1542 1545 1548 1551 1553 1555 1557 1559 1561 1562 1564 1566 1567 1568 1570 1571
1446 1448 1449 1439 1435 1436 1443 1449 1441 1443 1448 1453 1456 1459 1463 1468 1472 1476 1480 1484 1488 1492 1497 1501 1506 1509 1514 1519 1524 1528 1532 1535 1538 1540 1544 1547 1549 1552 1554 1556 1558 1560 1562 1564 1565 1567 1568 1570 1571
1448 1451 1447 1437 1429 1431 1437 1443 1439 1442 1446 1450 1453 1456 1460 1465 1470 1474 1478 1482 1486 1489 1493 1497 1502 1506 1511 1516 1521 1526 1530 1533 1536 1539 1541 1545 1548 1550 1553 1555 1557 1559 1561 1563 1565 1566 1567 1569 1570
1450 1444 1440 1436 1429 1431 1435 1436 1436 1438 1442 1445 1449 1452 1457 1462 1467 1472 1476 1480 1483 1487 1490 1494 1499 1503 1508 1513 1518 1523 1527 1531 1534 1537 1539 1543 1546 1549 1552 1554 1555 1558 1560 1561 1563 1565 1566 1568 1569
1439 1439 1438 1434 1427 1431 1434 1434 1432 1436 1441 1443 1446 1450 1455 1460 1464 1469 1473 1478 1481 1484 1487 1491 1495 1500 1505 1509 1514 1519 1524 1528 1532 1535 1537 1541 1544 1547 1549 1552 1554 1556 1558 1560 1562 1564 1565 1567 1569
1436 1441 1438 1432 1427 1430 1432 1433 1429 1432 1437 1439 1442 1447 1452 1457 1462 1467 1471 1475 1478 1481 1484 1488 1491 1496 1501 1505 1511 1516 1521 1525 1530 1533 1536 1539 1542 1545 1548 1550 1552 1554 1556 1558 1560 1562 1564 1566 1568
1435 1437 1435 1435 1428 1425 1432 1438 1434 1432 1434 1439 1441 1444 1448 1454 1459 1464 1468 1471 1475 1477 1480 1483 1487 1492 1497 1502 1508 1514 1519 1524 1528 1531 1534 1537 1540 1543 1546 1548 1550 1552 1554 1556 1559 1561 1563 1565 1567
1438 1428 1428 1429 1435 1438 1436 1451 1440 1435 1437 1439 1441 1443 1446 1451 1457 1461 1464 1468 1471 1474 1477 1480 1484 1489 1494 1499 1505 1509 1514 1519 1523 1527 1531 1535 1538 1541 1544 1546 1548 1550 1553 1555 1557 1559 1561 1563 1565
1429 1423 1425 1428 1434 1441 1441 1449 1445 1436 1439 1440 1439 1442 1444 1448 1454 1458 1461 1464 1467 1470 1473 1477 1481 1486 1491 1496 1501 1507 1512 1516 1521 1525 1528 1532 1535 1538 1541 1544 1546 1548 1551 1553 1555 1557 1559 1561 1563
1422 1425 1427 1430 1437 1454 1447 1451 1449 1436 1436 1435 1435 1438 1441 1446 1451 1455 1459 1462 1465 1468 1471 1474 1478 1482 1488 1492 1498 1503 1509 1513 1518 1521 1525 1529 1533 1536 1539 1541 1544 1546 1549 1551 1553 1554 1557 1559 1561
1422 1435 1451 1458 1460 1459 1444 1446 1441 1427 1426 1428 1431 1435 1439 1445 1449 1453 1456 1459 1462 1466 1469 1471 1474 1479 1484 1489 1494 1500 1505 1510 1514 1518 1522 1526 1530 1533 1536 1539 1541 1544 1546 1548 1550 1552 1554 1556 1558
1423 1430 1453 1468 1471 1465 1454 1454 1435 1421 1422 1425 1429 1434 1438 1443 1448 1452 1454 1457 1460 1464 1466 1469 1472 1476 1481 1486 1491 1497 1502 1507 1511 1516 1520 1524 1527 1530 1533 1536 1539 1541 1543 1546 1548 1550 1552 1553 1555
1423 1426 1426 1442 1455 1469 1465 1454 1436 1423 1423 1425 1428 1432 1438 1442 1446 1451 1454 1456 1460 1462 1465 1468 1470 1474 1478 1483 1488 1493 1498 1504 1509 1514 1518 1521 1525 1528 1531 1533 1536 1539 1541 1543 1545 1548 1549 1551 1552
1413 1418 1429 1440 1457 1467 1461 1456 1452 1435 1429 1426 1429 1432 1437 1442 1446 1450 1453 1456 1459 1463 1465 1468 1471 1473 1477 1481 1486 1490 1495 1501 1506 1511 1515 1519 1523 1525 1528 1531 1533 1536 1538 1541 1543 1545 1547 1549 1550
1418 1420 1423 1429 1432 1450 1461 1459 1436 1434 1429 1428 1429 1433 1436 1440 1445 1449 1453 1457 1459 1463 1465 1468 1471 1474 1477 1481 1485 1490 1494 1499 1504 1508 1513 1517 1520 1523 1526 1529 1531 1534 1536 1538 1541 1543 1545 1546 1548
1410 1415 1421 1437 1440 1437 1445 1453 1432 1432 1431 1431 1431 1433 1436 1440 1444 1448 1453 1457 1460 1463 1465 1468 1471 1474 1477 1480 1484 1489 1493 1498 1502 1506 1510 1514 1517 1521 1524 1527 1529 1532 1534 1536 1538 1540 1542 1544 1545